CAPE
0 0 0 0 0 0 0 0 0 0 0 0 0 0 0 0 0 1 4 0 2 5 6 0 7 4 1 33 98 415 461 538
0 0 0 0 0 0 0 0 0 0 0 0 0 0 0 0 0 2 5 3 3 1 1 2 0 5 3 3 0 289 207 492
0 0 0 0 0 0 0 0 0 0 0 0 0 0 0 0 0 1 4 3 1 3 0 7 11 5 1 2 5 41 208 252
0 0 0 0 0 0 0 0 0 0 0 0 0 0 0 0 0 0 6 1 4 2 2 2 3 2 3 3 2 106 198 161
0 0 0 0 0 0 0 0 0 0 0 0 0 1 0 2 0 0 6 5 5 6 2 3 0 6 2 3 2 1 49 139
0 0 0 0 0 0 0 0 0 0 0 0 0 2 3 3 1 0 4 6 7 3 2 6 1 3 5 2 4 4 1 46
0 0 0 0 0 0 0 0 0 0 0 0 2 6 3 4 4 1 6 9 8 1 3 1 8 3 5 3 2 2 0 17
0 0 0 0 0 2 0 0 0 0 0 0 1 4 6 1 1 2 3 10 12 4 0 2 6 3 4 2 2 2 4 3
0 0 0 0 0 3 1 0 0 0 0 0 0 8 5 3 4 7 4 5 12 13 3 1 1 5 3 5 2 2 3 3
0 0 2 2 2 6 3 0 0 0 0 0 0 5 8 7 2 7 6 5 4 3 7 0 2 3 3 3 3 2 3 4
1 3 4 10 9 10 3 1 0 0 0 0 1 8 4 2 4 6 4 4 5 5 3 2 5 1 7 2 3 2 3 3
4 3 9 13 15 13 5 1 0 0 0 0 4 5 4 2 3 5 3 7 3 1 1 6 4 3 3 4 1 2 4 5
1 4 10 13 15 13 4 1 0 0 0 2 3 1 1 3 2 3 3 5 3 0 8 6 6 6 2 2 3 1 3 6
0 1 5 9 9 5 2 0 0 0 0 1 0 3 4 6 4 2 5 8 9 1 5 5 14 9 6 2 2 3 1 4
0 0 2 2 2 1 0 0 0 0 0 0 0 3 5 7 6 4 11 7 17 8 10 10 6 10 5 2 1 3 1 2
0 0 0 0 0 0 0 0 0 0 0 0 0 2 3 4 8 6 8 13 14 13 13 11 8 9 0 2 1 1 4 2
0 0 0 0 0 0 0 0 0 0 0 0 0 0 2 2 7 5 5 3 6 13 11 5 3 8 0 0 2 1 2 2
0 0 0 0 0 0 0 0 0 0 0 0 0 2 3 3 4 4 1 2 9 14 0 6 1 6 0 0 0 0 1 1
0 0 0 0 0 0 0 0 0 0 0 0 1 1 2 2 2 0 0 0 4 10 1 5 7 8 0 0 0 1 2 1
CIN
0 0 0 0 0 0 0 0 0 0 0 0 0 0 0 0 0 -1 -1 0 0 0 -1 0 0 0 -7 -37 0 -6 -10 -3
0 0 0 0 0 0 0 0 0 0 0 0 0 0 0 0 0 -1 0 0 0 -1 -1 -2 0 0 0 0 0 0 -11 -4
0 0 0 0 0 0 0 0 0 0 0 0 0 0 0 0 0 -1 0 0 0 0 0 0 0 0 0 0 -35 -25 -4 -12
0 0 0 0 0 0 0 0 0 0 0 0 0 0 0 0 0 0 0 -1 0 0 0 0 0 0 0 0 0 0 0 -4
0 0 0 0 0 0 0 0 0 0 0 0 0 -2 -2 -3 0 0 -1 0 0 0 0 0 0 0 0 0 0 -2 -4 0
0 0 0 0 0 0 0 0 0 0 0 0 0 -2 -2 -2 -2 -1 -1 0 0 0 0 0 0 0 0 0 0 0 0 -16
0 0 0 0 0 -3 0 0 0 0 0 0 -3 -4 -3 -2 -2 -1 -1 0 0 0 0 0 0 0 0 0 0 0 0 -31
0 0 0 0 0 -4 0 0 0 0 0 0 -2 -4 -3 -1 -3 0 -2 -1 0 0 0 0 0 0 0 0 0 0 0 0
0 0 0 -2 -2 -4 -3 -2 0 0 0 0 -1 -3 -1 -2 -1 0 -1 -3 0 0 0 0 0 0 0 0 0 0 0 0
0 -1 -2 -6 -3 -4 -3 -3 0 0 0 0 -1 -2 -1 -1 -2 0 0 0 -2 -1 0 0 0 0 0 0 0 0 0 0
-2 -3 -6 -6 -4 -4 -3 -3 -3 0 -1 0 -2 -2 -2 -1 0 -1 0 -1 -1 0 -1 0 0 0 0 0 0 0 0 0
-3 -6 -4 -6 -5 -5 -3 -3 -1 0 0 -1 -1 -2 -1 0 0 -1 -1 0 -1 0 0 -1 0 0 0 0 0 0 0 0
-3 -6 -6 -5 -5 -6 -4 -2 0 0 0 -2 -2 -1 0 -1 -1 0 -3 0 -1 -4 0 -2 -1 0 0 0 0 0 0 0
-1 -5 -6 -5 -5 -5 -4 0 0 0 0 -3 -2 -3 -2 -1 -4 -1 -2 -1 -1 -5 0 -1 0 0 0 0 0 0 0 0
0 0 -4 -4 -4 -4 0 0 0 0 0 0 0 -3 -3 -2 -3 -2 0 -2 -1 0 0 0 0 0 0 0 0 0 0 0
0 0 0 0 0 0 0 0 0 0 -1 -3 0 -2 -3 -2 -2 -2 -1 -1 -1 0 0 0 0 0 0 0 0 0 0 0
0 0 0 0 0 0 0 0 0 0 0 -1 0 -3 -2 -4 -3 -2 0 -1 -1 0 0 0 -1 0 0 0 0 0 0 0
0 0 0 0 0 0 0 0 0 0 0 -1 -3 -3 -4 -3 -2 -1 -2 -1 0 -1 -2 0 -2 0 0 0 0 0 0 0
0 0 0 0 0 0 0 0 0 0 0 0 -3 -3 -3 -2 -1 0 -1 -1 -1 0 -1 0 0 0 0 0 0 0 0 0
Wind_Speed
34 35 36 37 38 39 40 41 42 42 39 39 37 36 35 35 35 36 38 37 39 40 39 36 35 37 41 33 61 48 44 36
33 35 36 38 39 41 42 42 42 41 40 40 39 39 38 36 36 37 37 38 38 39 39 41 39 38 43 42 48 45 41 41
34 36 38 39 41 42 43 43 42 41 41 40 39 39 38 37 37 37 38 38 38 38 39 39 38 40 42 49 52 54 48 49
34 36 37 40 41 43 43 43 43 42 42 41 40 39 38 38 38 38 39 38 38 38 39 39 39 39 40 43 48 48 52 53
34 37 39 41 41 42 43 43 44 43 43 41 42 40 40 40 39 40 40 39 39 38 38 39 40 40 40 41 42 53 54 61
33 37 39 41 41 42 43 43 44 44 44 43 41 40 40 40 40 41 40 40 40 39 38 39 38 39 40 40 44 44 56 58
30 36 38 40 40 41 42 43 44 44 44 43 42 40 41 41 41 42 41 40 40 40 39 38 38 39 39 40 42 45 54 63
23 30 36 38 40 40 42 43 44 44 44 43 42 40 40 41 41 41 42 41 41 41 41 38 38 38 39 40 41 44 44 51
22 24 27 34 37 39 42 43 44 44 44 43 42 40 39 39 40 41 41 41 41 42 40 39 38 38 38 38 40 41 45 43
22 22 23 26 32 39 42 44 44 44 44 43 42 40 41 41 41 40 41 40 41 42 39 39 38 38 37 38 39 40 41 46
22 22 22 22 26 31 39 42 44 43 43 42 42 40 41 41 40 41 41 41 41 40 39 38 37 37 36 36 37 38 41 42
22 22 22 23 24 26 32 38 42 42 43 42 41 41 41 40 40 41 41 41 40 39 39 36 36 35 35 36 35 37 39 42
23 22 23 24 25 26 27 34 39 41 41 41 39 41 40 39 40 40 41 40 39 39 38 37 35 35 34 34 34 34 38 40
23 24 25 26 26 27 27 28 35 40 41 41 40 39 39 39 39 40 39 39 38 38 38 37 36 35 35 34 34 32 34 37
25 25 27 28 27 27 28 27 30 38 40 40 40 39 39 39 39 39 39 39 38 37 37 37 37 35 36 36 35 33 31 32
25 27 28 28 28 28 28 28 28 34 40 40 40 39 39 39 39 38 39 38 37 37 37 37 37 33 36 37 35 33 31 30
26 27 28 29 29 29 28 28 28 29 39 40 39 38 39 39 39 38 38 37 37 37 36 37 36 33 36 35 34 32 30 29
27 28 28 29 29 29 29 28 28 29 34 40 39 39 39 39 39 39 37 37 37 36 36 36 36 33 34 34 33 29 28 28
26 27 27 28 29 30 28 28 28 28 30 38 39 39 38 39 39 38 37 36 35 35 35 35 35 32 33 34 33 29 27 26
Wind_Direction
355 354 354 351 348 344 341 339 337 334 332 329 325 323 323 322 319 312 305 302 296 292 287 288 279 270 263 270 239 241 238 240
358 356 351 345 344 342 340 336 334 332 331 326 323 321 320 320 320 319 312 303 299 292 289 281 280 276 270 264 266 240 239 239
356 354 350 345 340 338 337 335 333 332 332 328 324 320 319 318 319 320 319 311 303 295 289 285 280 276 271 263 260 254 242 237
357 354 351 343 340 338 338 336 332 330 329 329 329 325 323 322 319 319 320 317 310 301 292 287 282 278 273 267 259 250 241 239
358 351 345 341 340 339 338 336 335 332 330 328 328 328 322 322 325 323 320 321 317 308 297 290 283 278 273 272 266 248 248 236
359 351 345 342 338 336 336 334 335 335 335 332 329 328 325 318 321 323 326 324 323 315 306 294 287 280 275 272 268 261 244 245
5 356 351 347 345 337 334 333 333 335 336 336 335 335 328 322 321 322 325 330 327 323 313 301 292 283 277 272 268 262 246 239
11 7 359 354 350 350 334 332 331 334 337 336 335 337 333 324 323 322 321 326 332 323 319 308 296 291 281 274 269 262 260 250
15 13 9 2 356 353 343 331 330 334 335 335 336 335 337 333 329 324 322 324 328 328 317 314 303 295 288 278 271 267 257 258
17 15 15 12 5 353 344 335 333 334 333 333 333 337 331 330 329 328 325 325 326 331 319 314 310 300 294 285 272 266 263 257
19 18 15 14 12 6 354 344 336 334 334 332 332 336 334 332 330 328 326 327 327 326 324 318 313 307 299 293 279 271 263 260
20 18 17 15 14 12 5 356 345 338 337 333 334 335 335 336 332 329 326 327 328 327 325 319 313 311 305 298 289 275 267 261
21 19 17 16 14 13 10 3 353 346 342 336 337 336 336 334 334 331 331 327 329 326 321 322 316 314 310 303 295 286 270 263
21 20 18 17 15 14 13 10 2 351 346 343 336 337 336 337 336 333 332 331 329 329 324 322 319 315 314 309 300 293 282 267
21 19 18 17 17 16 15 15 11 358 349 347 340 335 335 335 340 338 335 332 332 331 330 326 326 321 318 314 308 295 290 278
20 18 17 18 18 17 17 17 16 7 351 347 343 337 335 334 335 337 334 336 335 332 332 334 328 329 326 317 310 298 291 286
20 19 18 18 18 18 18 18 19 16 356 346 344 338 337 336 337 337 334 332 331 335 334 334 326 331 325 320 311 299 294 290
21 21 21 20 20 20 19 20 21 20 11 346 340 338 336 338 337 338 333 330 332 335 337 340 335 329 324 320 314 299 295 291
23 22 22 22 22 21 21 23 24 23 20 359 341 337 334 337 334 337 337 330 332 338 340 340 338 327 326 323 319 306 295 294